Theta_e
325 324 325 325 321 321 320 317 315 317 323 319 313 316 321 316 314 318 320 323 330 332 336 341 339 340 344 341 341 340 339 340 338 338 338 338 339 339 340 343 345 345 346 346 345 346 346 348 349 349 350 350 351 352 353 352 352 353 353 354 355 355 355
324 323 324 324 323 324 320 314 315 320 320 319 319 314 312 311 312 317 319 318 319 322 331 346 346 341 343 343 342 341 342 343 341 339 339 338 339 340 339 342 343 344 346 346 346 346 346 347 348 349 350 350 351 352 353 353 353 353 353 354 355 355 355
323 324 322 321 323 324 321 319 320 321 315 313 317 316 312 311 311 313 318 320 319 320 329 342 344 342 345 344 343 343 341 343 343 340 340 339 338 339 340 340 341 342 344 344 345 345 346 347 348 349 350 350 351 352 353 353 353 353 354 354 355 355 355
322 324 322 316 318 322 322 321 320 322 319 312 314 317 314 314 313 312 315 316 317 325 337 343 343 346 346 342 343 345 341 342 343 341 341 340 339 340 340 339 340 341 341 343 344 345 345 346 347 349 350 350 351 351 352 353 354 353 354 354 354 355 355
320 320 322 319 319 321 319 317 315 315 317 315 315 316 315 316 319 319 316 311 315 334 349 350 351 350 345 343 343 342 342 342 342 343 342 342 341 340 340 340 340 340 340 341 341 344 345 345 346 348 350 351 351 351 352 353 354 354 354 355 355 355 355
315 318 325 324 323 324 321 318 316 314 315 315 313 312 315 316 318 322 320 310 313 336 346 345 354 352 341 343 342 340 342 342 341 342 342 343 343 341 340 341 339 340 341 341 340 342 344 345 346 348 349 351 351 352 352 353 354 355 355 355 355 356 356
318 322 325 325 323 325 325 322 321 319 319 316 310 310 316 316 315 322 322 312 315 339 349 344 352 354 343 341 342 341 341 340 342 343 341 343 344 342 341 340 340 341 341 340 340 340 343 344 345 347 349 351 351 351 352 353 355 355 355 356 356 356 357
321 322 324 324 325 325 323 322 324 322 319 318 316 320 324 317 313 318 319 312 315 337 352 344 345 351 347 341 340 342 342 340 342 342 342 344 345 344 344 341 341 342 341 342 343 343 343 343 345 347 349 351 351 352 352 353 354 355 355 356 356 356 357
317 319 320 319 320 322 322 323 324 322 323 320 320 327 325 317 314 318 316 311 319 345 357 345 341 346 346 343 340 339 341 341 341 341 343 345 345 345 346 344 343 343 343 345 347 347 345 342 345 347 348 350 351 351 352 353 354 355 356 356 356 357 357
315 315 317 320 321 320 320 325 323 323 326 321 317 318 315 315 319 318 315 316 329 349 349 337 340 345 345 349 345 339 340 340 341 342 343 345 346 346 346 346 345 345 346 347 349 349 345 342 344 347 348 351 351 351 352 352 354 355 356 357 357 357 357
320 318 322 331 332 320 315 320 321 322 325 322 321 316 312 320 322 316 324 333 329 331 339 339 341 340 337 342 344 342 344 342 341 344 345 346 346 345 345 346 346 346 348 349 349 349 346 343 344 347 348 350 351 352 352 352 354 355 356 357 357 357 358
326 324 325 329 327 319 316 319 319 321 324 322 320 314 316 328 321 310 331 348 325 325 350 352 343 342 336 334 336 340 344 344 342 343 345 348 347 345 346 345 347 349 350 348 349 350 347 344 344 347 348 350 351 352 352 353 354 355 356 357 357 358 358
324 325 325 325 324 322 321 321 319 320 323 320 317 317 322 330 319 311 332 345 326 329 350 346 344 347 338 335 340 342 341 342 343 341 343 345 345 346 347 347 348 349 349 349 350 350 349 346 345 347 348 350 351 351 352 353 353 355 357 357 358 358 358
323 323 326 325 323 321 320 321 322 321 323 321 319 320 324 326 321 320 335 342 332 331 336 334 338 343 336 336 345 347 341 342 347 346 343 342 342 344 346 347 348 348 349 349 349 350 352 350 347 347 348 350 351 352 352 353 354 355 356 357 358 358 358
325 323 326 325 323 322 319 320 324 322 321 322 319 321 323 323 322 323 331 335 335 335 338 336 334 336 337 340 349 354 350 348 351 350 345 340 340 343 345 346 347 347 348 350 349 350 352 351 348 348 349 350 351 352 352 353 354 355 356 357 358 358 358
326 323 324 325 324 324 318 316 321 322 319 320 320 320 323 322 321 322 323 323 329 336 338 337 336 337 340 345 353 360 362 359 357 357 353 347 342 342 345 347 348 347 347 349 351 350 350 348 347 348 350 351 351 352 352 353 354 355 356 357 357 358 358
327 323 322 324 325 323 318 317 320 322 321 321 321 322 326 325 323 322 319 319 327 333 332 332 334 335 337 341 345 352 362 366 362 359 355 350 346 345 345 346 347 347 346 347 349 350 348 346 346 348 350 351 351 352 352 352 354 355 356 357 357 358 358
325 322 322 326 326 321 320 323 325 324 325 324 321 321 324 324 323 324 322 324 327 328 329 331 330 330 335 341 346 348 350 354 361 364 358 351 347 345 345 347 347 346 346 346 347 347 346 346 346 348 350 351 351 352 352 353 353 355 356 357 357 358 358
324 324 325 330 332 328 328 333 332 324 322 326 326 327 330 329 326 325 325 330 331 330 332 334 332 339 350 355 360 360 353 352 358 361 360 358 354 349 346 347 348 349 349 350 349 347 345 346 347 347 349 351 351 352 353 353 353 355 356 357 357 358 358
325 328 329 332 335 334 332 336 338 333 331 328 324 329 342 350 346 336 329 336 345 343 341 340 340 350 358 358 360 361 358 358 357 354 353 355 354 354 352 350 351 353 349 347 347 346 345 346 348 348 348 350 351 352 353 353 353 354 355 356 357 358 358
324 328 332 334 331 329 332 338 340 338 338 336 329 328 342 363 362 349 338 345 362 363 352 345 343 345 351 358 363 358 354 355 355 354 353 348 345 349 353 350 347 345 343 342 343 344 346 347 348 349 349 349 351 352 352 353 353 353 354 355 356 357 358
329 330 335 337 330 329 336 339 338 337 336 337 337 332 341 364 364 353 353 357 366 365 351 343 343 342 347 361 372 363 352 351 352 353 354 351 349 354 357 356 353 345 341 342 343 343 346 347 348 349 350 350 351 352 352 353 353 353 353 354 355 356 357
332 335 339 339 332 335 342 338 336 336 334 339 339 328 336 361 363 357 361 362 359 356 345 340 344 341 346 374 381 363 351 349 350 350 352 353 353 354 354 358 361 354 346 344 345 345 345 346 347 349 350 351 352 352 352 353 353 353 353 353 354 355 356
336 338 340 339 336 341 343 337 336 337 336 339 334 324 336 360 361 357 363 362 360 362 357 355 359 356 359 379 376 355 346 348 348 347 348 350 351 352 349 349 352 350 349 350 351 349 346 346 347 348 349 351 352 352 353 353 353 353 353 353 354 354 355
343 341 340 339 339 342 341 336 335 338 338 334 327 328 344 359 359 358 361 360 360 363 366 370 371 362 357 359 354 345 345 348 346 344 346 346 347 349 348 347 349 348 349 353 353 349 347 348 350 349 350 351 351 352 354 353 353 354 354 353 354 354 354
344 343 342 341 340 339 337 335 335 338 339 336 332 336 346 352 355 357 357 354 354 355 357 358 355 349 346 346 345 345 345 345 345 344 344 345 346 347 346 347 347 347 348 351 352 353 354 353 353 353 353 352 351 351 353 353 354 354 354 354 354 354 354
341 341 341 342 343 340 336 336 338 339 341 340 334 334 343 351 353 353 352 352 351 349 349 348 346 346 346 344 344 345 344 343 344 344 344 346 347 346 346 346 346 347 350 350 350 353 357 358 357 357 356 355 354 352 352 353 354 354 354 355 354 353 354
342 342 340 340 343 341 337 337 339 337 336 335 331 333 345 353 352 349 349 350 348 346 347 347 345 345 346 344 345 345 344 343 343 343 344 345 345 345 345 345 344 344 347 348 348 349 354 357 359 359 358 358 357 356 356 355 354 355 355 354 354 354 353
342 342 342 341 342 341 338 337 337 334 332 330 327 329 338 346 347 348 349 348 346 345 344 344 345 345 345 344 343 342 342 341 341 342 343 344 345 346 345 344 343 343 344 345 345 346 350 353 355 357 359 359 358 358 359 358 357 358 357 355 354 353 353
341 341 341 341 340 338 336 336 335 333 331 330 328 327 330 334 337 340 342 341 341 341 339 339 340 340 339 339 338 338 339 339 339 341 342 342 344 346 345 344 343 342 342 344 344 345 347 349 350 353 355 356 357 358 359 360 360 359 359 358 356 353 352
340 340 339 339 338 336 335 334 334 334 332 330 329 329 328 329 328 330 332 333 332 332 332 333 333 333 334 335 335 335 336 337 337 339 341 342 344 346 346 344 342 341 343 345 345 345 345 346 347 350 352 353 354 356 358 360 361 362 361 360 357 354 352
339 339 337 337 337 335 334 334 335 335 333 331 329 327 327 327 326 325 326 327 327 328 329 330 330 331 331 333 334 334 335 336 337 338 340 342 344 345 345 343 341 341 343 344 345 345 345 345 346 347 349 352 352 354 356 358 362 364 363 361 360 356 353
337 338 336 337 339 338 335 334 334 335 334 331 329 326 325 324 324 324 323 324 324 326 327 328 329 330 330 331 332 333 334 335 336 337 339 341 342 343 344 343 341 341 342 343 344 344 344 345 345 345 346 348 350 352 354 357 361 363 362 361 360 358 356
336 338 337 337 341 342 337 334 333 334 333 331 329 328 326 324 323 323 323 324 324 325 325 327 327 328 329 329 330 331 333 334 336 336 338 339 340 341 343 343 343 342 342 342 343 343 344 345 345 345 346 346 348 349 351 354 356 357 357 357 356 355 356
335 336 336 336 340 340 337 333 334 334 333 331 329 328 327 325 324 323 323 325 326 326 326 326 326 327 328 327 328 330 330 332 333 334 335 337 339 339 341 343 344 343 343 343 343 343 343 344 344 345 345 345 345 346 347 349 351 352 352 353 352 353 354
333 334 334 335 338 338 334 332 333 334 334 332 330 329 329 328 326 325 324 325 325 326 326 327 326 326 327 327 327 328 329 330 332 332 332 334 336 337 339 341 342 343 343 343 343 342 343 344 344 344 344 343 343 342 343 344 345 345 345 345 345 346 346
331 331 331 332 335 335 333 331 332 332 333 332 330 330 329 327 326 325 325 325 325 325 325 327 326 325 326 326 326 326 327 328 329 329 330 331 332 335 337 338 340 341 341 342 342 342 342 343 344 343 343 343 342 341 340 341 341 341 341 340 340 339 339
Wind_Speed
10 12 9 9 9 6 3 5 8 8 6 7 6 5 4 2 3 5 3 4 4 3 5 5 9 13 14 17 18 19 18 16 14 13 14 16 17 17 17 17 18 19 18 19 23 27 29 31 34 36 39 41 42 42 41 43 43 43 44 45 46 46 46
11 10 8 8 10 9 5 5 8 4 2 6 5 3 5 5 6 6 2 5 5 3 5 4 6 10 12 14 16 18 17 14 14 15 15 18 19 19 19 19 18 19 18 18 23 28 31 34 36 40 43 44 43 43 43 44 43 43 45 45 45 45 45
10 7 7 7 7 9 7 5 7 6 4 6 4 4 6 6 6 6 3 5 5 5 5 4 7 10 11 12 13 15 16 14 14 15 17 19 19 17 16 17 17 17 18 18 22 28 32 35 38 41 43 42 41 42 43 44 45 46 47 46 46 46 46
8 5 6 7 8 10 6 2 5 5 5 6 6 5 4 4 5 5 3 4 5 6 6 7 10 11 12 13 12 13 15 15 14 14 16 17 17 16 16 17 17 18 18 19 25 30 33 35 38 39 39 38 40 41 42 42 43 44 44 45 45 44 45
7 4 5 10 10 9 6 5 6 6 3 3 5 4 3 4 5 3 3 6 7 5 5 9 11 11 12 13 13 14 16 17 16 16 17 16 16 17 17 17 17 19 19 20 26 32 34 35 36 35 35 37 39 39 40 41 41 41 43 43 44 43 44
6 5 7 11 13 11 9 8 7 8 5 3 4 5 2 3 5 5 5 8 9 5 5 8 10 11 12 13 14 14 15 17 17 18 18 17 17 17 18 18 18 18 18 18 23 28 29 29 29 31 33 36 37 38 39 40 40 41 43 44 44 44 43
7 8 9 11 13 13 11 9 7 7 5 5 6 8 4 3 3 2 3 6 8 5 7 8 9 10 10 11 12 12 12 14 16 17 17 16 16 17 17 18 17 17 17 17 20 23 25 26 28 31 33 34 36 39 40 39 40 42 43 43 44 44 43
5 6 7 5 7 9 9 9 9 8 8 8 7 6 5 4 4 3 1 6 6 4 6 8 6 7 9 8 9 11 11 10 12 15 15 14 14 15 16 16 16 16 16 15 15 15 18 23 27 30 32 34 36 38 38 39 41 43 42 41 42 43 43
6 5 6 6 5 6 4 6 10 12 14 12 6 3 4 4 6 7 5 7 6 5 4 7 4 4 7 7 7 10 10 9 10 12 11 12 13 13 14 15 15 16 15 13 13 12 14 20 26 29 32 34 34 36 38 40 41 41 40 40 41 42 42
9 6 6 7 5 4 3 5 10 14 17 17 10 4 4 6 5 7 7 6 5 7 4 6 6 6 7 8 6 7 9 10 11 10 9 10 10 12 14 15 16 16 14 13 14 14 15 20 25 28 31 33 34 36 39 40 40 39 40 40 41 41 41
6 5 6 6 6 8 9 11 11 12 16 18 13 7 7 6 4 6 8 6 3 6 6 5 7 8 9 9 8 7 8 10 10 10 10 9 9 12 14 15 15 15 13 14 16 16 16 21 26 28 30 33 34 35 37 39 39 39 39 40 41 41 41
6 6 11 11 8 11 14 14 14 13 13 15 16 13 9 9 7 9 8 8 6 7 7 7 8 8 9 10 10 9 9 9 9 9 10 10 11 11 11 11 13 14 15 15 16 16 16 19 24 27 30 33 35 35 36 37 38 38 39 40 41 41 41
12 9 12 13 11 12 12 14 17 16 13 15 18 17 11 11 11 11 8 11 11 8 8 8 9 10 11 10 9 7 6 7 8 8 9 11 12 13 12 12 13 14 16 16 15 16 16 17 21 25 27 30 32 33 34 36 37 39 40 40 41 40 40
14 13 12 11 10 11 11 12 17 17 16 17 18 16 13 14 15 11 9 12 12 9 10 11 11 11 9 5 4 6 6 7 8 9 10 12 13 14 15 16 16 16 17 17 16 17 16 16 19 23 25 28 31 32 34 35 37 39 40 41 41 40 40
10 11 10 10 9 10 12 13 13 16 19 19 19 17 13 11 12 10 8 10 9 8 8 10 11 9 5 3 5 7 9 8 8 8 10 12 13 14 14 14 15 16 16 16 15 15 16 17 20 24 26 29 32 32 33 36 38 40 40 41 41 41 43
7 7 8 13 15 10 10 14 15 16 17 17 16 14 11 11 12 11 9 8 7 8 8 8 9 7 5 7 8 7 8 7 8 9 11 11 12 13 13 13 13 14 15 15 16 16 16 17 21 25 27 28 29 30 33 36 39 39 39 40 40 42 42
6 8 10 13 13 8 8 15 17 16 14 13 12 10 10 12 13 11 11 10 9 10 8 6 8 8 8 10 8 7 7 6 6 9 10 12 13 12 12 12 13 15 14 14 16 17 17 20 26 31 32 30 31 34 37 38 36 36 37 39 39 40 40
6 11 12 10 6 6 10 9 11 14 13 11 10 10 11 12 11 9 9 10 12 11 8 9 11 10 7 5 4 4 4 3 5 7 8 10 11 11 11 11 12 12 12 13 14 16 20 26 31 34 35 34 36 38 37 35 34 36 37 38 39 39 38
6 8 7 5 4 7 8 5 4 12 14 11 11 10 10 11 11 9 7 8 11 10 8 9 8 4 3 4 4 3 4 2 2 5 6 7 7 8 9 11 11 11 11 10 10 13 20 26 29 29 31 33 34 34 34 34 35 37 38 37 37 37 37
4 4 2 4 6 9 10 6 5 3 3 5 9 9 7 6 7 8 8 9 9 7 7 8 5 6 6 4 5 5 6 6 5 5 5 5 5 7 7 8 10 11 12 14 15 18 22 25 26 27 31 33 32 31 33 35 35 37 36 35 34 34 34
3 3 4 4 6 10 8 3 6 7 4 4 5 7 7 5 5 7 8 9 8 6 6 7 8 8 5 3 4 5 8 8 7 6 6 5 4 5 5 6 7 7 10 15 20 23 24 25 27 30 32 34 32 29 30 32 33 34 33 32 34 34 35
3 3 4 3 4 5 3 4 9 8 7 11 11 7 7 6 4 5 7 9 9 8 9 10 9 7 6 2 4 5 8 9 9 8 7 7 6 5 4 3 2 4 7 11 14 17 21 23 28 31 31 30 28 26 27 29 30 30 30 32 34 36 37
3 2 2 2 4 5 2 9 16 15 14 13 7 3 6 6 4 1 4 7 7 9 11 10 7 7 6 4 5 6 7 8 8 8 8 9 9 9 9 9 8 6 5 7 9 10 13 19 24 25 25 26 25 23 25 28 27 27 29 32 35 36 38
4 2 2 3 4 4 5 13 18 18 16 9 2 5 7 6 4 3 4 3 3 6 8 7 5 5 5 5 3 5 7 7 6 7 8 8 9 8 9 12 13 12 7 3 9 11 14 19 23 22 22 23 22 23 25 25 25 27 32 36 37 39 39
4 3 1 3 4 3 8 15 18 18 12 2 7 6 7 4 4 4 5 4 2 4 6 5 4 2 1 1 2 4 6 6 6 8 7 6 7 8 9 12 14 13 11 6 3 8 11 12 15 20 22 20 20 22 22 21 26 33 39 41 40 40 38
3 3 1 3 4 3 11 16 16 12 5 3 5 5 8 5 2 4 6 6 6 8 8 8 7 5 4 5 6 6 8 8 8 9 10 9 11 12 14 18 19 15 11 10 7 2 2 3 7 14 20 20 19 20 18 21 30 36 37 37 38 37 35
2 2 1 3 4 3 12 15 11 7 5 2 6 10 10 6 2 3 5 5 6 9 11 10 9 8 6 7 7 8 9 9 8 9 10 10 10 12 13 16 19 16 11 9 11 11 8 4 4 10 15 17 16 16 17 23 28 26 23 27 31 30 30
3 4 4 2 3 3 8 8 5 5 7 7 7 8 6 5 5 2 4 6 5 8 12 11 9 9 9 8 8 8 9 9 8 8 10 10 10 10 10 12 16 15 11 10 13 15 15 11 4 5 12 15 13 12 17 22 21 18 18 22 25 26 28
2 3 4 3 1 3 4 3 3 7 9 11 11 8 5 4 5 4 3 6 5 7 10 11 9 9 9 9 9 9 8 8 8 8 9 10 10 10 10 13 16 14 10 10 12 14 17 15 10 3 4 12 15 16 19 21 19 19 19 20 22 26 28
1 2 1 2 2 2 4 2 3 7 10 12 13 10 7 6 5 4 4 6 6 6 8 10 9 7 7 8 8 7 7 7 8 8 8 9 10 10 10 12 15 14 11 11 11 11 14 16 14 11 7 3 8 13 18 20 19 21 22 22 24 27 29
1 2 1 2 4 2 4 4 6 9 10 11 11 9 8 7 5 5 5 6 7 7 8 10 10 7 6 8 7 6 6 7 7 7 8 8 9 10 10 11 13 13 11 11 10 9 11 14 14 12 11 9 8 7 10 13 16 20 22 24 26 28 30
1 4 3 2 5 4 3 4 5 7 8 8 9 9 9 9 8 7 7 7 7 8 9 9 10 9 7 7 8 7 6 6 6 6 7 7 7 8 9 11 12 11 9 8 9 9 10 13 14 13 12 11 9 6 6 8 12 16 21 25 26 27 29
2 3 2 2 5 5 4 4 4 5 5 5 8 9 11 11 9 8 9 9 8 8 8 7 10 11 8 7 8 8 7 7 7 6 6 7 7 8 9 10 11 10 9 9 9 9 11 13 14 14 15 14 11 8 6 8 10 12 15 17 19 22 25
3 2 2 2 4 4 1 1 2 4 4 4 6 7 9 9 8 6 8 10 9 9 8 7 9 11 8 7 9 9 8 7 7 7 7 7 8 9 11 10 10 10 10 10 9 9 10 11 12 12 13 13 13 11 7 5 6 7 8 10 13 17 21
3 2 2 2 2 4 3 2 1 4 4 3 4 3 5 7 7 5 5 9 9 9 8 7 8 9 7 7 8 9 8 7 6 7 8 8 8 10 12 11 10 10 11 11 11 10 10 11 11 11 12 13 13 13 11 7 3 1 4 6 9 11 14
2 1 1 0 1 3 4 3 3 4 4 3 2 1 4 6 7 6 4 6 7 7 7 7 7 7 7 7 8 8 7 6 6 7 9 11 11 12 13 13 11 11 11 11 10 11 11 12 12 11 12 14 16 16 16 13 12 12 11 9 8 7 7
2 2 2 3 1 3 5 4 4 4 5 3 1 2 3 4 5 5 5 5 5 5 7 7 6 6 7 7 7 7 7 6 8 8 10 12 14 13 14 14 13 11 11 10 10 11 12 13 12 12 12 13 14 16 16 15 16 17 15 14 13 12 13
Wind_Direction
203 200 195 175 175 189 180 157 192 208 173 175 224 239 212 195 263 254 205 236 271 276 276 249 198 202 205 205 209 209 213 209 199 202 203 204 207 205 203 203 203 206 204 204 204 203 202 199 198 200 200 199 198 197 198 199 200 199 199 201 202 204 205
229 202 190 198 189 168 150 189 197 160 138 205 205 219 237 233 250 266 218 228 247 220 254 256 188 200 210 210 211 212 213 204 198 203 203 205 208 205 204 203 203 206 204 203 204 204 204 201 199 200 201 200 199 198 198 198 199 199 200 201 202 204 205
222 186 187 231 225 201 203 197 172 143 178 217 187 185 222 216 238 272 277 252 234 202 224 224 192 202 209 211 213 215 215 205 202 207 204 206 208 205 205 204 204 207 205 204 204 205 205 203 202 203 202 200 199 200 200 199 199 200 201 201 202 204 205
199 178 180 211 230 229 229 159 166 179 179 193 191 186 193 192 225 260 275 264 238 216 206 188 195 208 206 207 209 213 217 210 206 208 206 207 206 203 204 204 205 206 206 205 204 205 205 203 204 204 201 199 199 200 200 200 201 201 201 202 202 204 206
194 191 188 200 208 215 215 192 195 203 190 185 201 199 169 169 191 209 234 254 250 240 205 183 192 206 206 205 206 210 214 210 207 208 207 205 203 203 204 203 204 206 206 206 205 206 206 204 204 202 198 199 199 200 200 201 200 200 201 203 203 204 206
206 211 201 200 204 203 202 204 203 202 189 138 177 220 217 169 188 185 201 250 259 247 202 188 192 202 207 206 206 213 216 210 209 210 208 205 201 203 203 201 203 205 206 206 205 206 205 203 202 199 198 199 199 199 200 201 200 200 201 202 202 204 206
215 220 214 204 208 206 202 206 202 194 181 145 179 218 216 199 227 173 167 253 263 238 194 191 196 200 209 211 204 211 220 215 213 213 210 206 203 203 202 201 202 204 205 206 204 201 199 199 199 197 197 198 198 199 200 199 200 202 203 202 202 204 205
255 253 254 242 213 200 203 212 199 189 196 192 197 203 181 202 221 148 182 255 261 248 199 195 214 211 208 217 207 208 222 223 221 220 214 208 205 203 202 201 202 205 206 204 201 197 195 197 197 197 197 198 199 199 198 199 202 203 202 201 202 204 205
251 261 266 262 225 199 207 215 204 203 204 198 198 168 153 220 209 165 190 240 249 278 230 190 224 232 208 221 216 209 219 224 226 226 218 211 207 202 202 202 202 205 204 199 196 194 193 195 196 196 198 198 198 197 198 200 202 202 201 200 201 204 206
230 229 231 224 199 199 230 216 209 210 205 199 197 176 184 227 216 170 188 222 251 289 267 188 205 221 214 232 236 221 225 226 226 228 221 214 208 203 202 202 203 205 201 195 195 195 195 195 195 196 197 197 197 197 199 200 200 199 199 199 201 203 205
240 257 274 250 183 188 216 218 215 216 212 205 197 195 201 198 195 205 203 188 210 271 261 227 240 236 223 233 234 222 227 227 223 222 218 209 205 209 207 202 203 202 198 197 196 196 197 196 196 196 195 196 196 197 198 199 199 198 197 198 200 203 204
273 277 289 281 236 211 212 211 216 221 217 208 205 215 203 155 176 229 212 171 192 241 249 246 254 246 236 238 233 223 225 227 222 221 218 207 204 211 212 207 204 199 198 202 199 196 196 195 196 196 196 196 197 197 198 197 196 197 196 197 200 202 203
307 298 290 283 264 242 220 205 211 217 214 210 214 219 197 165 198 228 203 183 201 223 233 233 237 238 236 236 236 239 241 233 228 223 220 215 209 205 203 203 202 200 201 201 197 196 195 193 193 194 195 197 197 197 197 195 195 196 195 196 200 202 203
311 305 295 285 268 255 243 220 209 209 213 215 217 218 202 196 216 221 192 194 207 212 214 217 224 232 233 226 235 263 262 235 223 217 214 218 215 208 203 200 197 199 202 200 197 195 193 191 191 192 194 195 195 196 195 194 195 196 195 196 199 201 203
306 303 313 321 302 263 250 244 224 211 213 216 218 216 203 204 223 225 199 199 220 241 227 219 229 238 253 257 230 244 251 230 211 214 219 221 219 214 210 204 198 198 198 197 196 194 193 193 191 191 194 194 194 195 194 194 196 196 195 197 199 201 205
297 303 336 334 322 304 259 245 236 220 212 214 220 214 196 193 204 215 219 213 230 250 236 233 252 255 256 254 233 232 251 237 202 206 220 225 225 222 214 204 197 198 198 195 193 193 195 194 192 193 193 192 193 194 194 196 197 195 195 198 200 204 206
289 300 320 320 318 312 257 234 227 224 219 214 216 216 210 199 185 196 221 220 221 228 211 208 244 244 238 244 236 230 253 259 227 220 222 221 222 223 217 206 198 197 197 195 195 196 194 192 194 195 192 190 193 195 196 197 195 193 195 199 202 205 206
285 295 310 315 293 246 249 238 204 211 221 211 206 215 218 209 194 199 216 214 221 225 193 186 218 231 232 232 227 234 258 265 247 246 246 238 233 225 213 207 205 201 200 201 201 200 198 197 197 196 193 193 196 197 196 194 192 193 197 200 203 205 205
275 296 315 311 248 231 263 291 188 207 213 195 193 215 222 215 210 207 205 216 227 223 198 202 214 200 137 121 86 30 353 345 284 264 259 251 251 242 220 208 205 201 197 201 205 204 202 201 199 196 196 197 198 197 194 192 193 196 199 201 203 205 204
261 290 283 243 259 283 292 315 15 340 250 181 188 211 238 245 214 194 197 218 223 206 199 207 186 150 144 113 66 37 14 9 359 328 291 257 236 239 236 223 214 206 197 194 197 200 201 198 195 195 198 199 198 196 194 193 194 197 199 201 203 204 204
226 242 260 260 289 303 298 325 19 6 337 298 264 230 235 250 208 186 196 206 202 181 178 177 164 158 140 60 11 5 13 4 353 343 324 304 270 242 240 236 234 241 230 211 199 194 193 193 195 197 199 199 197 194 192 193 195 197 198 201 202 203 204
214 229 268 291 287 274 271 323 329 330 321 310 303 269 245 253 236 201 188 184 178 158 152 160 160 140 104 66 302 331 2 355 346 347 343 345 355 352 336 310 271 270 256 235 217 202 194 195 199 200 198 197 195 192 191 192 194 196 199 203 204 203 204
242 222 234 263 257 240 279 334 329 329 325 314 308 266 253 268 290 249 158 170 174 154 152 162 152 126 132 196 264 321 350 347 344 347 349 1 8 6 9 10 355 326 275 228 216 207 203 206 207 202 198 196 193 192 192 191 192 195 201 205 206 205 206
215 180 219 250 259 259 327 341 330 320 315 311 146 182 242 271 337 35 97 137 177 145 141 139 107 109 161 193 253 331 345 342 347 356 356 0 1 0 7 7 358 351 345 239 196 193 203 212 210 202 197 195 194 196 194 190 191 198 204 206 207 209 209
182 146 201 273 271 286 344 340 322 313 310 268 159 193 250 295 16 55 86 101 113 105 111 112 89 75 139 118 21 359 2 1 1 3 360 360 7 9 7 5 5 8 11 6 228 211 216 218 210 201 195 193 199 202 197 193 198 204 206 207 208 209 209
168 134 130 296 273 326 355 335 315 319 335 175 196 278 297 310 15 86 93 96 99 87 81 92 101 95 68 50 37 23 21 21 13 7 8 11 11 10 9 9 9 10 14 23 29 13 243 218 206 199 194 196 203 204 201 206 211 211 210 209 209 208 207
94 106 114 286 253 310 350 337 327 358 21 276 285 305 303 304 331 96 99 85 90 96 91 90 98 99 82 61 52 41 34 31 23 14 16 17 12 10 10 9 8 6 6 15 23 29 42 74 171 189 191 199 206 204 207 218 222 223 220 215 212 209 206
128 168 182 210 238 299 342 344 336 345 336 314 312 312 302 309 322 350 88 75 76 103 107 105 103 99 90 75 64 55 44 36 30 23 19 17 14 14 13 9 9 12 13 5 5 15 27 37 59 177 191 197 200 205 218 223 225 228 228 220 213 209 206
149 167 174 154 174 292 317 333 317 328 343 347 343 335 325 317 316 330 70 84 75 87 100 101 94 87 83 74 65 59 49 36 30 28 26 23 19 14 12 11 12 15 21 15 8 9 15 19 20 10 215 199 196 206 218 220 217 217 219 216 211 209 207
88 75 79 117 107 317 309 325 348 358 9 3 350 342 332 319 327 357 50 78 71 69 88 93 88 85 88 83 72 61 56 44 33 28 28 26 24 22 20 15 12 14 20 21 18 13 8 9 10 5 348 276 226 223 218 212 212 212 210 207 207 208 207
171 121 195 160 109 26 331 356 19 21 21 10 356 341 321 317 345 23 47 66 73 75 81 87 92 95 94 92 86 69 59 52 40 36 33 24 22 26 25 20 16 18 23 23 19 14 6 3 4 3 360 352 329 283 235 218 215 211 205 201 202 203 204
205 140 182 181 125 97 15 14 33 30 21 9 358 342 326 330 352 22 43 53 64 71 70 79 91 85 72 77 81 70 62 56 44 43 41 32 30 33 29 26 25 24 24 23 18 13 5 359 358 1 4 1 349 325 277 247 229 215 205 200 198 197 197
191 143 184 176 132 110 36 17 46 54 34 11 4 353 338 335 343 11 44 49 50 60 64 71 82 77 63 62 68 62 54 47 39 36 38 36 36 36 33 34 35 31 26 24 21 16 8 3 2 5 8 6 359 344 303 260 238 223 211 201 193 188 184
201 188 202 178 145 130 93 341 43 62 53 35 26 1 330 322 326 356 51 60 53 52 54 57 75 79 68 56 66 65 53 40 33 28 31 36 35 31 31 36 41 40 37 33 29 23 14 13 17 19 20 21 16 5 343 298 262 237 209 189 181 180 178
220 215 201 185 139 125 146 193 101 81 71 53 55 16 311 306 312 338 57 78 72 63 55 50 67 82 74 58 66 67 52 36 33 31 32 36 35 29 28 30 34 37 36 32 27 20 13 17 25 30 35 41 42 40 39 34 22 150 170 173 182 191 195
265 260 262 296 119 131 142 146 97 84 75 57 48 353 309 307 313 333 32 76 85 86 80 62 60 76 80 70 69 69 57 35 28 34 37 39 40 35 31 29 27 26 28 28 25 21 18 20 23 29 38 45 50 55 58 63 68 68 60 50 38 11 335
277 292 314 308 275 135 129 113 83 67 68 69 20 308 313 321 330 347 13 39 60 78 83 71 56 58 69 70 64 65 63 39 25 33 41 43 42 39 33 28 22 19 22 27 31 33 33 29 24 24 31 37 48 58 65 70 74 72 67 60 51 35 16